Current weather by "City, St" or "zip code"  
 
Advertise Here

Current Conditions: Friday Harbor Airport, WA

Fair


53.0 F

Last Updated on May 29 2020, 11:53 pm PDT
Humidity: 80%
Wind Speed: N 0.0 mph
Barometer 29.84 in
Dewpoint: 46.9 F
Visibility: 10.00 mi
Precip: --
Heat Index: NA
Wind Chill: NA
Current conditions at:

Friday Harbor Airport, WA (KFHR)

Lat: 48.52 Lon: 123.02637

Local Radar Image active severe weather and emergency alerts image image weather storm and storm spotter reports image weather observation monitoring service image
Local
Radar
Active
Alerts
Storm Reports Obs
Monitoring

Sign-up For Email & Text Message Weather Alert Notification Services


Advertise Here

Observation History for Friday Harbor Airport, WA


Time Wind
(mph)
Vis
(mi)
Weather Precip (in) Temperature (F) Relative
Humidity
Wind
Chill
(F)
Heat
Index
(F)
Pressure
Air Dwpt altimeter
(in)
sea level
(mb)
Rmks
11:53 pm PDT N 0.0 10.00 Fair -- 53.0 46.9 80% NA NA 29.84 1010.5
10:53 pm PDT N 0.0 10.00 Fair -- 55.0 45.0 69% NA NA 29.84 1010.6
9:53 pm PDT N 0.0 10.00 Fair -- 54.0 45.0 72% NA NA 29.85 1010.9
8:53 pm PDT N 0.0 10.00 Fair -- 56.0 45.0 67% NA NA 29.85 1010.7
7:53 pm PDT N 0.0 10.00 Fair -- 59.0 46.9 64% NA NA 29.86 1011.1
6:53 pm PDT N 0.0 10.00 Fair -- 63.0 46.9 56% NA NA 29.86 1011.3
5:53 pm PDT SW 3.5 10.00 Fair -- 67.0 48.0 51% NA NA 29.88 1011.9
4:53 pm PDT SE 4.6 10.00 Fair -- 66.0 51.1 59% NA NA 29.90 1012.4
3:53 pm PDT SE 4.6 10.00 Fair -- 66.0 53.1 63% NA NA 29.91 1012.8
2:53 pm PDT SW 6.9 10.00 Fair -- 67.0 52.0 59% NA NA 29.92 1013.3
1:53 pm PDT SW 9.2 10.00 Fair -- 65.0 52.0 63% NA NA 29.93 1013.5
12:53 pm PDT SW 5.8 10.00 Fair -- 68.0 55.9 65% NA NA 29.94 1014.0
11:53 am PDT SE 4.6 10.00 Fair -- 64.0 55.0 73% NA NA 29.96 1014.4
10:53 am PDT SE 4.6 10.00 Fair -- 61.0 53.1 75% 61 NA 29.96 1014.6
9:53 am PDT SE 4.6 10.00 Fair -- 60.0 53.1 78% 60 NA 29.97 1014.9
8:53 am PDT SE 3.5 10.00 Fair -- 57.0 51.1 81% NA NA 29.97 1014.9
7:53 am PDT N 0.0 10.00 Fair -- 56.0 52.0 87% NA NA 29.97 1014.8
6:53 am PDT N 0.0 10.00 Fair -- 52.0 51.1 97% NA NA 29.96 1014.5
5:53 am PDT N 0.0 8.00 Fair -- 48.0 46.9 96% NA NA 29.95 1014.3
4:53 am PDT N 0.0 10.00 Fair -- 47.0 46.0 97% NA NA 29.94 1013.8
3:53 am PDT N 0.0 10.00 Fair -- 49.0 46.9 93% NA NA 29.94 1013.7
2:53 am PDT N 0.0 10.00 Fair -- 50.0 48.9 96% NA NA 29.93 1013.6
1:53 am PDT W 3.5 10.00 Fair -- 51.0 48.0 89% NA NA 29.93 1013.6
12:53 am PDT N 0.0 10.00 Fair -- 52.0 48.0 86% NA NA 29.94 1014.0

Regional Weather Observation


Eastsound, Orcas Island Airport, WA (KORS)

NULL
63.0 F

Bellingham, Bellingham International Airport, WA (KBLI)

Fair
58.0 F

Port Angeles Fairchild International Airport, WA (KCLM)

Fair
53.0 F

Whidbey Island Naval Air Station - Ault Field, WA (KNUW)

Mostly Cloudy
53.0 F

Burlington/Mount Vernon, Skagit Regional Airport, WA (KBVS)

Partly Cloudy
52.0 F

Arlington Municipal Airport, WA (KAWO)

Fair
53.0 F